Location: Unspecified
(49.2170°N, 0.0000°E)
Time: 05:54:21
(UTC+00:00)

Transit 2A - Pass Details

Date: 25 June 2019
Orbit: 594 x 965 km, 66.7° (Epoch: 15 July)

Event Time Altitude Azimuth Distance (km) Brightness Sun altitude
Rises 09:09:07 0° 318° (NW) 3,431 9.0 47.4°
Reaches altitude 10° 09:11:59 10° 307° (NW) 2,428 8.3 47.9°
Maximum altitude 09:16:38 28° 250° (WSW) 1,409 7.4 48.6°
Drops below altitude 10° 09:20:54 10° 192° (SSW) 2,201 8.6 49.2°
Sets 09:23:23 0° 181° (S) 3,055 9.3 49.6°
